STARLINK-37898, 69705

Orbit data source: Space-Track

STARLINK-37898, 69705 is a payload satellite owned by SpaceX/Seattle (US) in SSO that was launched on Sun, 28 Jun 2026 UTC via an FALCON 9 launch vehicle from the Air Force Western Test Range (AFWTR). Payload-class satellites include a variety of spacecraft equipped with specific instruments for various scientific and technological missions. These include communications satellites like Starlink; space stations such as the ISS; scientific satellites like the Hubble; Earth observation satellites from companies like Planet Labs, Umbra, and HawkEye 360; GPS; miniature CubeSats for education and research; and military/defense satellites.

Loading next visibility...
Identifier
69705, 2026-147B
Orbit
SSO
Country
Flag of USUS
Related business
Manufacturer
SpaceX/Seattle
Mission
Operational Commercial Communications
Bus & Motor
STARLINK V2MO, Unknown motor
Mass
575 kg wet, ~530 kg dry
Launch date (UTC)
2026-06-28 (2 months ago)
Launch vehicle
FALCON 9
Launch site
Air Force Western Test Range (AFWTR)
Object type
Payload
Rocket body
Debris
Shape & HBR
Box + 1 Pan, 17.7 m
Radar Cross Section
41.120 m², Large (>1 m²)

Expand to show TLE details & history
Last TLE update: 13 hours ago

TLE from 13 hours ago
0 STARLINK-37898
1 69705U 26147B   26236.84155073  .00020944  00000-0  64914-3 0  9995
2 69705  97.2845 273.5118 0000961  93.8498 266.2855 15.33451695 10140
Epoch: 2026-08-24T20:11Z
TLE epoch observation values (Epoch: 2026-08-24T20:11:49.983Z)
Latitude
0.00004°
Longitude
-2.56393°
Altitude
468.678 km
Speed
7.632 km/s
True Right ascension
18h 14m 02s
True Declination
0° 00' 00"
Sunlit
Object was in full shadow at epoch
Visualization orbit readout
Latitude
Unknown
Longitude
Unknown
Altitude
Unknown
Speed
Unknown
Apparent Right ascension
Unknown
Apparent Declination
Unknown
Sunlit
N/A
Visualization observer readout
Local Sidereal Time
00:11:46
Azimuth
Unknown
Elevation
Unknown
Doppler factor
Unknown
Orbital elements
Apogee altitude
463.123 km
Perigee altitude
461.809 km
Semi-major axis
6,840.603 km
Eccentricity
0.0001
Inclination
97.2845°
RAAN
273.5118°
Arg. of periapsis
93.8498°
True anomaly
266.27451°
Mean anomaly
266.2855°
Eccentric anomaly
266.28001°
Mean motion
3.8362 °/min
Orbital period
93.84 mins
BSTAR
0.00064914
Loading maneuver chart data...
Computing Atmospheric mass density...
Loading historical data...
Loading historical data...
Loading historical data...
Loading historical data...
Loading historical data...
Loading historical data...
Loading historical data...

Documentation

Showing up to 5 results
|